Location: STAR School
(35.3054°N, 111.2976°W)
Time: 08:56:06
(UTC-07:00)

deb Explorer IX - All Passes

Search period start: 21 May 2019 00:00
Search period end: 31 May 2019 00:00
Orbit: 538 x 1115 km, 38.8° (Epoch: 20 May)

Date Brightness Start Highest point End Pass type
(mag) Time Alt. Az. Time Alt. Az. Time Alt. Az.
21 May - 01:06:31 10° SSE 01:08:06 12° SE 01:09:40 10° ESE night (unlit)
21 May - 02:50:23 10° SW 02:54:20 59° SSE 02:58:32 10° ENE visible
21 May - 04:37:07 10° W 04:41:13 57° N 04:45:50 10° ENE visible
21 May - 06:23:59 10° WNW 06:28:27 66° NNE 06:33:41 10° E daylight
21 May - 08:10:40 10° WNW 08:15:30 53° SSW 08:21:12 10° SE daylight
21 May - 09:58:59 10° WSW 10:02:16 16° SW 10:05:49 10° S daylight
22 May - 00:44:40 10° S 00:46:28 13° SE 00:48:14 10° ESE night (unlit)
22 May - 02:28:47 10° SW 02:32:44 61° SSE 02:36:52 10° ENE visible
22 May - 04:15:35 10° W 04:19:37 56° N 04:24:05 10° ENE visible
22 May - 06:02:27 10° WNW 06:06:49 66° NNE 06:11:53 10° E daylight
22 May - 07:49:08 10° W 07:53:48 51° SSW 07:59:17 10° SE daylight
22 May - 09:37:37 10° WSW 09:40:32 15° SW 09:43:40 10° S daylight
23 May - 00:22:49 10° S 00:24:49 13° SE 00:26:48 10° ESE night (unlit)
23 May - 02:07:09 10° WSW 02:11:09 62° SSE 02:15:13 10° ENE visible
23 May - 03:54:02 10° W 03:58:02 55° N 04:02:22 10° ENE visible
23 May - 05:40:55 10° WNW 05:45:11 66° NNE 05:50:05 10° E daylight
23 May - 07:27:37 10° W 07:32:08 49° SSW 07:37:24 10° SE daylight
23 May - 09:16:18 10° WSW 09:18:49 13° SW 09:21:29 10° S daylight
24 May - 00:00:57 10° S 00:03:12 14° SE 00:05:22 10° ESE night (unlit)
24 May - 01:45:32 10° WSW 01:49:33 64° SSE 01:53:35 10° ENE visible
24 May - 03:32:28 10° W 03:36:26 54° N 03:40:40 10° ENE visible
24 May - 05:19:23 10° WNW 05:23:35 66° NNE 05:28:19 10° E daylight
24 May - 07:06:06 10° W 07:10:28 46° SSW 07:15:31 10° SE daylight
24 May - 08:55:04 10° WSW 08:57:06 12° SW 08:59:14 10° SSW daylight
24 May - 23:39:04 10° S 23:41:34 15° SE 23:43:57 10° ESE night (unlit)
25 May - 01:23:52 10° WSW 01:27:58 66° SSE 01:31:58 10° ENE visible
25 May - 03:10:54 10° W 03:14:51 53° N 03:18:59 10° ENE visible
25 May - 04:57:50 10° WNW 05:01:58 66° NNE 05:06:33 10° E daylight
25 May - 06:44:35 10° W 06:48:48 44° SSW 06:53:39 10° SE daylight
25 May - 08:34:00 10° SW 08:35:24 11° SW 08:36:50 10° SSW daylight
25 May - 23:17:11 10° S 23:19:55 16° SE 23:22:31 10° ESE night (unlit)
26 May - 01:02:12 10° WSW 01:06:23 69° SSE 01:10:23 10° ENE visible
26 May - 02:49:19 10° W 02:53:16 53° N 02:57:19 10° ENE visible
26 May - 04:36:17 10° WNW 04:40:21 67° NNE 04:44:49 10° E visible
26 May - 06:23:04 10° W 06:27:09 42° SSW 06:31:49 10° SE daylight
26 May - 22:55:17 10° S 22:58:16 17° SSE 23:01:05 10° ESE night (unlit)
27 May - 00:40:30 10° WSW 00:44:47 71° SSE 00:48:48 10° ENE visible
27 May - 02:27:42 10° W 02:31:41 52° N 02:35:41 10° ENE visible
27 May - 04:14:43 10° WNW 04:18:45 68° NNE 04:23:06 10° E visible
27 May - 06:01:33 10° W 06:05:31 40° SSW 06:09:59 10° SE daylight
27 May - 22:33:22 10° S 22:36:37 18° SSE 22:39:39 10° ESE night (unlit)
28 May - 00:18:47 10° WSW 00:23:10 73° SSE 00:27:13 10° ENE night (unlit)
28 May - 02:06:05 10° W 02:10:06 52° N 02:14:04 10° ENE visible
28 May - 03:53:09 10° WNW 03:57:10 68° NNE 04:01:24 10° E visible
28 May - 05:40:01 10° W 05:43:53 38° SSW 05:48:10 10° SE daylight
28 May - 22:11:26 10° SSW 22:14:58 20° SSE 22:18:12 10° E night (unlit)
28 May - 23:57:02 10° WSW 00:01:34 75° SSE 00:05:40 10° ENE night (unlit)
29 May - 01:44:25 10° W 01:48:30 52° N 01:52:27 10° ENE visible
29 May - 03:31:33 10° WNW 03:35:34 69° NNE 03:39:44 10° E visible
29 May - 05:18:29 10° W 05:22:16 36° SSW 05:26:22 10° SE daylight
29 May - 21:49:30 10° SSW 21:53:18 21° SSE 21:56:44 10° E night (unlit)
29 May - 23:35:16 10° WSW 23:39:57 77° SSE 23:44:07 10° ENE night (unlit)
30 May - 01:22:45 10° W 01:26:55 52° N 01:30:52 10° ENE visible
30 May - 03:09:56 10° WNW 03:13:59 71° NNE 03:18:04 10° E visible
30 May - 04:56:56 10° W 05:00:39 34° SSW 05:04:36 10° SE daylight
30 May - 21:27:33 10° SSW 21:31:38 23° SSE 21:35:17 10° E visible
30 May - 23:13:29 10° WSW 23:18:19 79° SSE 23:22:33 10° ENE night (unlit)
